EHI
7 8 12 16 17 15 12 8 7 9 10 8 5 4 4 3 3 4 3 1 0 0 0 0 0 0 0 0 0 0 0 0 0 0 0 0 0 0 0 0 0 0 0
9 12 16 18 19 17 13 9 8 8 9 7 4 2 2 2 2 3 3 1 1 0 0 0 0 0 0 0 0 0 0 0 0 0 0 0 0 0 0 0 0 0 0
14 17 19 21 22 20 16 12 8 7 7 6 3 1 0 0 1 2 2 2 2 1 0 0 0 0 0 0 0 0 0 0 0 0 0 0 0 0 0 0 0 0 0
19 19 20 22 23 21 16 12 9 6 5 4 2 0 0 0 0 0 1 2 2 1 1 0 0 0 0 0 0 0 0 0 0 0 0 0 0 0 0 0 0 0 0
21 19 20 22 22 20 14 11 9 7 4 3 1 0 0 0 0 0 0 1 2 2 1 0 0 0 0 0 0 0 0 0 0 0 0 0 0 0 0 0 0 0 0
24 20 19 21 20 18 13 10 9 8 5 3 2 1 0 0 0 0 0 1 1 2 1 0 0 0 0 0 0 0 0 0 0 0 0 0 0 0 0 0 0 0 0
27 22 19 19 19 17 15 11 9 8 6 4 3 1 0 0 0 0 0 0 0 0 0 0 0 0 0 0 0 0 0 0 0 0 0 0 0 0 0 0 0 0 0
26 23 19 18 18 17 15 11 8 7 6 5 4 2 1 0 0 0 0 0 0 0 0 0 0 0 0 0 0 0 0 0 0 0 0 0 0 0 0 0 0 0 0
23 20 17 16 15 14 11 6 4 4 5 6 5 4 1 0 1 1 1 0 0 0 0 0 0 0 0 0 0 0 0 0 0 0 0 0 0 0 0 0 0 0 0
18 16 14 14 12 9 6 2 1 1 2 4 5 4 2 0 1 1 1 0 0 0 0 0 0 0 0 0 0 0 0 0 0 0 0 0 0 0 0 0 0 0 0
16 14 13 11 9 5 2 1 1 1 0 2 3 2 1 0 0 0 0 0 0 0 0 0 0 0 0 0 0 0 0 0 0 0 0 0 0 0 0 0 0 0 0
14 13 11 8 5 3 2 1 1 1 0 0 1 2 2 1 0 0 0 0 0 0 0 0 0 0 0 0 0 0 0 0 0 0 0 0 0 0 0 0 0 0 0
12 10 7 4 2 2 1 0 0 0 0 0 0 1 2 1 0 0 0 0 0 0 0 0 0 0 0 0 0 0 0 0 0 0 0 0 0 0 0 0 0 0 0
8 6 3 1 0 0 0 0 0 0 0 0 0 0 1 1 0 0 0 0 0 0 0 0 0 0 0 0 0 0 0 0 0 0 0 0 0 0 0 0 0 0 0
4 3 1 0 0 0 0 0 0 0 0 0 0 0 0 0 0 0 0 0 0 0 0 0 0 0 0 0 0 0 0 0 0 0 0 0 0 0 0 0 0 0 0
2 1 0 0 0 0 0 0 0 0 0 0 0 0 0 0 0 0 0 0 0 0 0 0 0 0 0 0 0 0 0 0 0 0 0 0 0 0 0 0 0 0 0
2 2 1 0 0 0 0 0 0 0 0 0 0 0 0 0 0 0 0 0 0 0 0 0 0 0 0 0 0 0 0 0 0 0 0 0 0 0 0 0 0 0 0
3 2 1 0 0 0 0 0 0 0 0 0 0 0 0 0 0 0 0 0 0 0 0 0 0 0 0 0 0 0 0 0 0 0 0 0 0 0 0 0 0 0 0
3 2 1 0 0 0 0 0 0 0 0 0 0 0 0 0 0 0 0 0 0 0 0 0 0 0 0 0 0 0 0 0 0 0 0 0 0 0 0 0 0 0 0
2 1 0 0 0 0 0 0 0 0 0 0 0 0 0 0 0 0 0 0 0 0 0 0 0 0 0 0 0 0 0 0 0 0 0 0 0 0 0 0 0 0 0
2 1 0 0 0 0 0 0 0 0 0 0 0 0 0 0 0 0 0 0 0 0 0 0 0 0 0 0 0 0 0 0 0 0 0 0 0 0 0 0 0 0 0
1 0 0 0 0 0 0 0 0 0 0 0 0 0 0 0 0 0 0 0 0 0 0 0 0 0 0 0 0 0 0 0 0 0 0 0 0 0 0 0 0 0 0
0 0 0 0 0 0 0 0 0 0 0 0 0 0 0 0 0 0 0 0 0 0 0 0 0 0 0 0 0 0 0 0 0 0 0 0 0 0 0 0 0 0 0
0 0 0 0 0 0 0 0 0 0 0 0 0 0 0 0 0 0 0 0 0 0 0 0 0 0 0 0 0 0 0 0 0 0 0 0 0 0 0 0 0 0 0
0 0 0 0 0 0 0 0 0 0 0 0 0 0 0 0 0 0 0 0 0 0 0 0 0 0 0 0 0 0 0 0 0 0 0 0 0 0 0 0 0 0 0
0 0 0 0 0 0 0 0 0 0 0 0 0 0 0 0 0 0 0 0 0 0 0 0 0 0 0 0 0 0 0 0 0 0 0 0 0 0 0 0 0 0 0
Wind_Speed
5 7 11 11 11 10 10 10 10 9 9 9 9 9 9 9 9 9 8 8 8 8 8 8 8 8 8 8 8 8 8 7 7 6 6 5 5 6 6 6 6 4 7
8 8 11 11 11 11 10 10 9 9 9 9 9 9 9 8 8 8 8 7 7 7 7 7 7 7 7 7 7 6 6 6 6 5 4 3 2 3 5 5 5 3 6
9 8 9 10 10 11 11 10 10 9 9 9 8 8 8 8 8 8 7 7 7 6 6 6 6 6 6 6 5 5 5 5 4 3 3 1 1 3 4 4 4 4 4
9 8 8 9 10 11 11 11 10 9 8 8 8 8 7 7 7 7 7 7 6 6 6 6 5 5 5 4 4 4 4 4 4 3 1 1 0 2 3 4 4 4 3
7 5 7 9 10 10 11 11 10 9 8 7 7 7 7 7 7 7 6 6 6 6 5 5 5 5 4 3 3 3 4 4 4 3 2 1 1 2 3 3 3 3 3
6 5 6 9 9 9 9 10 10 9 8 8 7 7 7 7 7 6 6 5 5 5 5 4 4 4 4 3 3 3 4 4 3 2 1 1 1 2 3 3 4 3 2
6 4 5 8 8 8 8 9 10 9 9 8 7 7 6 7 7 6 5 5 5 4 4 4 3 3 3 2 3 3 4 4 3 2 1 1 0 1 2 3 3 2 2
7 6 5 8 8 7 7 7 9 9 8 8 7 6 6 6 6 6 5 5 4 4 4 3 2 2 2 2 2 3 4 3 3 1 1 1 1 1 2 2 2 1 1
7 6 4 4 5 6 6 5 7 8 8 7 7 6 6 5 5 5 4 4 4 3 3 3 2 2 1 2 2 3 3 3 2 1 1 1 1 1 1 1 1 1 1
6 5 4 4 3 3 4 5 5 7 7 7 6 6 5 4 4 4 3 3 3 3 2 2 2 2 2 2 2 2 3 2 1 1 1 1 0 1 1 1 1 1 1
5 4 4 4 3 2 3 4 4 5 5 5 5 5 4 2 2 2 2 3 2 2 2 2 2 2 3 3 2 2 2 1 1 1 0 1 0 1 1 1 0 1 1
5 4 3 4 3 2 2 3 2 2 2 2 2 3 2 1 1 2 2 2 2 3 2 2 2 3 2 1 2 2 1 1 1 1 1 1 0 1 1 1 1 0 1
6 5 4 3 3 2 1 2 1 1 1 2 2 2 2 2 1 1 1 1 1 2 1 2 2 2 1 1 1 1 1 1 1 1 1 1 1 1 1 2 1 1 1
5 4 4 3 3 2 2 2 2 2 1 1 2 2 2 2 1 1 1 1 1 1 1 1 1 2 2 2 1 1 1 1 0 1 1 2 2 2 2 2 2 2 2
4 4 4 4 3 3 2 2 2 2 2 2 2 2 3 2 2 1 1 1 1 1 1 1 1 2 2 2 1 1 1 1 1 1 1 3 3 3 3 3 3 3 3
5 4 4 4 3 3 2 2 2 2 2 2 2 2 3 2 2 2 1 1 1 1 1 1 1 1 1 1 2 2 1 1 1 1 1 2 4 4 4 3 3 3 3
5 4 4 4 4 4 3 2 2 2 2 2 2 2 3 2 2 2 2 1 1 1 1 1 2 2 2 2 2 2 1 1 1 1 1 1 1 3 4 4 4 4 3
4 4 3 4 4 4 3 3 2 2 3 2 2 2 3 3 3 2 2 1 1 1 1 1 1 1 2 2 1 1 1 1 1 1 1 1 1 1 3 4 5 5 5
4 5 4 4 4 3 3 3 3 3 2 2 2 2 2 3 3 3 2 1 1 2 2 1 2 1 1 1 1 1 1 1 0 1 2 2 2 2 2 3 5 6 6
4 4 4 4 4 3 3 3 2 3 2 2 2 2 2 2 3 3 2 2 2 2 2 1 2 1 1 0 1 1 1 1 1 1 1 2 2 2 2 2 2 3 5
4 4 3 3 4 4 3 2 2 1 1 1 1 2 2 2 3 3 2 2 2 2 1 1 1 2 1 1 2 2 2 2 1 1 1 1 2 2 2 2 1 1 2
4 3 3 3 3 3 2 1 1 1 0 0 1 1 2 2 2 2 2 1 1 2 2 2 2 1 1 1 1 1 2 3 2 2 1 1 1 1 1 1 1 1 1
4 4 3 3 3 3 3 2 2 2 2 1 1 0 0 1 2 2 2 2 1 2 1 1 1 2 1 1 1 2 1 1 2 2 1 1 1 1 1 1 0 0 0
5 4 3 4 4 3 3 3 3 2 1 1 1 1 0 1 1 1 2 2 1 1 1 1 1 1 2 1 0 1 1 2 1 2 2 1 1 1 1 1 1 1 0
4 4 3 3 3 3 3 3 3 2 1 0 1 1 1 1 1 1 1 2 1 1 1 1 1 1 1 2 1 0 1 0 1 1 2 3 2 2 2 2 1 1 1
3 4 4 4 3 3 3 3 3 3 2 2 1 1 1 1 1 1 1 2 2 1 2 2 2 2 1 1 1 1 1 1 1 1 2 3 3 3 2 2 2 1 1
Wind_Direction
165 166 153 145 139 134 130 125 122 121 117 112 108 107 106 104 104 105 105 107 104 101 98 94 93 90 86 85 85 84 83 80 80 77 69 64 73 84 87 83 83 74 88
154 158 150 148 143 138 133 128 125 123 120 116 112 110 108 107 106 107 109 109 105 101 99 97 92 89 86 83 83 81 79 76 72 66 59 54 63 93 98 94 93 91 97
145 149 150 146 144 141 136 133 129 125 122 120 116 114 112 111 110 108 105 107 106 103 102 99 94 89 85 81 80 79 73 66 59 51 47 41 69 108 113 110 103 93 92
140 143 146 148 145 143 140 137 132 128 125 124 122 118 117 115 110 107 103 105 106 103 101 97 92 87 83 78 73 71 65 55 45 38 42 17 315 119 116 112 106 102 94
129 136 145 142 144 143 143 140 136 133 130 126 124 120 117 112 108 106 103 102 105 101 96 91 87 83 78 73 67 60 52 46 37 40 39 36 33 103 101 114 114 101 93
123 123 141 138 138 138 142 142 140 137 134 127 123 121 118 114 109 107 105 102 102 102 99 94 92 88 79 69 57 44 36 31 47 45 38 44 22 90 102 114 109 97 94
122 119 135 131 134 135 138 145 144 141 135 131 127 124 123 118 113 107 109 106 104 104 103 100 96 92 81 65 46 37 32 35 65 63 36 4 340 97 105 116 113 99 80
126 120 124 124 120 125 134 144 147 141 136 133 130 124 122 123 119 113 113 112 112 110 109 106 102 96 82 51 32 30 33 41 50 36 344 294 305 120 114 127 130 110 73
120 116 108 111 122 122 119 126 144 141 136 130 124 118 112 117 118 113 110 115 118 115 106 101 94 81 50 24 21 27 33 32 44 339 284 276 279 175 111 115 118 103 66
115 116 114 106 100 107 118 118 119 132 131 127 122 114 109 109 117 112 106 109 108 104 95 86 75 48 18 8 12 27 28 36 36 350 309 278 135 141 109 94 91 70 54
118 120 119 108 97 92 114 120 112 122 126 122 119 114 108 109 118 117 106 98 91 79 70 64 44 35 21 7 13 24 37 47 36 3 323 326 116 143 122 109 87 23 10
135 138 133 123 120 111 125 117 112 109 119 117 116 117 111 115 128 120 99 77 65 51 34 37 29 23 27 8 9 33 43 44 43 354 339 330 241 136 108 93 86 28 7
149 144 139 139 137 122 114 129 111 94 99 99 100 110 106 99 86 81 78 44 37 42 23 10 21 15 25 32 18 20 38 53 37 344 348 13 30 74 76 50 53 51 22
142 144 144 142 134 121 112 121 122 118 110 106 113 114 109 101 90 96 97 83 63 46 29 24 20 15 26 29 43 44 47 51 41 13 359 29 33 44 48 37 28 23 17
144 145 146 139 135 126 112 123 121 125 120 119 116 112 113 115 111 105 108 94 66 55 56 36 30 32 32 26 31 52 46 39 34 31 10 34 39 47 50 44 31 21 22
155 153 145 141 139 127 116 121 129 124 115 103 106 112 114 117 112 108 106 87 60 47 59 58 37 52 48 44 32 35 43 51 46 44 41 38 49 51 43 35 26 16 9
160 151 143 145 134 125 121 120 111 116 111 97 95 96 103 107 109 108 110 88 45 32 58 59 41 40 50 45 24 10 25 35 53 61 69 69 37 33 35 32 23 12 10
149 137 143 143 125 119 122 118 110 104 105 101 92 88 93 98 97 91 91 87 54 61 59 69 56 48 40 32 7 342 352 9 50 82 82 71 54 30 25 34 31 21 17
149 142 141 128 120 114 106 98 97 91 92 100 88 85 96 93 95 95 82 63 76 74 54 51 58 72 50 14 347 346 346 349 53 85 83 79 70 59 40 33 34 32 27
142 135 129 128 120 110 96 82 74 78 80 89 96 87 92 99 99 96 88 58 75 80 56 50 64 56 68 351 353 7 341 333 86 93 97 84 71 66 55 39 28 22 28
130 130 129 134 131 123 115 107 97 89 82 89 107 100 85 96 102 101 90 66 68 88 83 74 86 73 36 15 43 12 356 10 56 67 69 75 61 55 50 44 33 30 16
147 155 148 149 137 134 131 128 129 131 142 150 108 89 98 94 101 111 109 100 84 87 74 69 82 93 44 37 80 77 2 346 351 9 26 71 53 44 41 38 31 41 33
163 174 174 164 152 144 130 106 85 64 49 50 74 61 53 92 92 107 114 112 105 105 120 116 122 122 123 355 71 129 127 253 310 319 329 9 4 2 331 314 343 356 25
187 176 165 165 161 158 146 139 138 139 158 214 185 173 172 123 122 130 126 122 115 115 132 146 119 135 144 167 332 57 151 163 172 307 309 308 309 287 284 309 300 278 288
177 169 164 155 161 163 154 151 152 148 160 137 107 136 178 212 182 178 159 148 157 168 177 149 112 133 156 173 194 190 89 84 143 178 285 305 307 278 266 263 258 259 264
167 165 161 155 166 169 163 161 170 171 162 139 146 173 205 229 220 202 189 178 192 192 197 188 171 179 183 179 187 185 170 173 188 183 244 286 293 286 284 260 237 239 245